Time,TemperatureF,DewpointF,PressureIn,WindDirection,WindDirectionDegrees,WindSpeedMPH,WindSpeedGustMPH,Humidity,HourlyPrecipIn,Conditions,Clouds,dailyrainin,SoftwareType,DateUTC
2013-01-10 00:14:00,30.8,26.0,29.73,SSW,197,3.0,7.0,82,0.00,,,0.00,weatherlink.com 1.10,2013-01-10 08:14:00,
2013-01-10 00:29:00,30.7,26.0,29.74,South,179,9.0,13.0,82,0.00,,,0.00,weatherlink.com 1.10,2013-01-10 08:29:00,
2013-01-10 00:44:00,30.3,25.0,29.73,South,190,12.0,14.0,82,0.00,,,0.00,weatherlink.com 1.10,2013-01-10 08:44:00,
2013-01-10 00:59:00,30.1,25.0,29.73,SSW,195,10.0,17.0,82,0.00,,,0.00,weatherlink.com 1.10,2013-01-10 08:59:00,
2013-01-10 01:14:00,30.0,25.0,29.73,South,188,8.0,16.0,82,0.00,,,0.00,weatherlink.com 1.10,2013-01-10 09:14:00,
2013-01-10 01:29:00,30.0,25.0,29.74,South,176,4.0,11.0,81,0.00,,,0.00,weatherlink.com 1.10,2013-01-10 09:29:00,
2013-01-10 01:44:00,29.8,25.0,29.74,South,185,10.0,15.0,81,0.00,,,0.00,weatherlink.com 1.10,2013-01-10 09:44:00,
2013-01-10 01:59:00,30.4,24.0,29.75,West,259,0.0,8.0,78,0.00,,,0.00,weatherlink.com 1.10,2013-01-10 09:59:00,
2013-01-10 02:14:00,29.3,24.0,29.75,North,352,2.0,4.0,81,0.00,,,0.00,weatherlink.com 1.10,2013-01-10 10:14:00,
2013-01-10 02:30:00,28.8,24.0,29.75,SW,221,2.0,3.0,82,0.00,,,0.00,weatherlink.com 1.10,2013-01-10 10:30:00,
2013-01-10 02:45:00,28.4,24.0,29.75,NW,313,2.0,4.0,82,0.00,,,0.00,weatherlink.com 1.10,2013-01-10 10:45:00,
2013-01-10 03:00:00,28.0,24.0,29.75,East,84,0.0,2.0,84,0.00,,,0.00,weatherlink.com 1.10,2013-01-10 11:00:00,
2013-01-10 03:15:00,28.0,24.0,29.75,NW,326,0.0,3.0,84,0.00,,,0.00,weatherlink.com 1.10,2013-01-10 11:15:00,
2013-01-10 03:30:00,28.4,23.0,29.75,SW,218,4.0,11.0,81,0.00,,,0.00,weatherlink.com 1.10,2013-01-10 11:30:00,
2013-01-10 03:45:00,28.1,23.0,29.75,SW,233,3.0,10.0,82,0.00,,,0.00,weatherlink.com 1.10,2013-01-10 11:45:00,
2013-01-10 04:00:00,28.0,24.0,29.76,SSW,212,3.0,15.0,83,0.00,,,0.00,weatherlink.com 1.10,2013-01-10 12:00:00,
2013-01-10 04:15:00,27.8,23.0,29.76,South,187,1.0,9.0,83,0.00,,,0.00,weatherlink.com 1.10,2013-01-10 12:15:00,
2013-01-10 04:30:00,27.3,23.0,29.76,SW,222,1.0,6.0,83,0.00,,,0.00,weatherlink.com 1.10,2013-01-10 12:30:00,
2013-01-10 04:45:00,27.0,23.0,29.76,WNW,290,0.0,3.0,84,0.00,,,0.00,weatherlink.com 1.10,2013-01-10 12:45:00,
2013-01-10 05:00:00,26.6,22.0,29.76,NNE,19,0.0,2.0,84,0.00,,,0.00,weatherlink.com 1.10,2013-01-10 13:00:00,
2013-01-10 05:15:00,26.1,22.0,29.76,ESE,120,0.0,2.0,84,0.00,,,0.00,weatherlink.com 1.10,2013-01-10 13:15:00,
2013-01-10 05:30:00,26.1,22.0,29.76,West,259,0.0,2.0,84,0.00,,,0.00,weatherlink.com 1.10,2013-01-10 13:30:00,
2013-01-10 05:45:00,25.6,22.0,29.77,NW,315,0.0,3.0,85,0.00,,,0.00,weatherlink.com 1.10,2013-01-10 13:45:00,
2013-01-10 06:00:00,26.3,22.0,29.78,SSW,203,8.0,11.0,83,0.00,,,0.00,weatherlink.com 1.10,2013-01-10 14:00:00,
2013-01-10 06:15:00,26.4,22.0,29.79,West,278,0.0,6.0,82,0.00,,,0.00,weatherlink.com 1.10,2013-01-10 14:15:00,
2013-01-10 06:30:00,25.9,21.0,29.79,West,266,0.0,4.0,83,0.00,,,0.00,weatherlink.com 1.10,2013-01-10 14:30:00,
2013-01-10 06:45:00,26.1,21.0,29.80,SSW,195,7.0,15.0,81,0.00,,,0.00,weatherlink.com 1.10,2013-01-10 14:45:00,
2013-01-10 07:00:00,26.0,21.0,29.80,SW,229,7.0,10.0,82,0.00,,,0.00,weatherlink.com 1.10,2013-01-10 15:00:00,
2013-01-10 07:15:00,25.8,21.0,29.81,WSW,253,4.0,13.0,82,0.00,,,0.00,weatherlink.com 1.10,2013-01-10 15:15:00,
2013-01-10 07:30:00,25.5,21.0,29.80,SSW,212,1.0,7.0,83,0.00,,,0.00,weatherlink.com 1.10,2013-01-10 15:30:00,
2013-01-10 07:45:00,25.3,21.0,29.80,SW,218,0.0,2.0,83,0.00,,,0.00,weatherlink.com 1.10,2013-01-10 15:45:00,
2013-01-10 08:00:00,25.3,21.0,29.80,East,83,0.0,1.0,83,0.00,,,0.00,weatherlink.com 1.10,2013-01-10 16:00:00,
2013-01-10 08:15:00,25.8,21.0,29.81,ESE,118,0.0,3.0,81,0.00,,,0.00,weatherlink.com 1.10,2013-01-10 16:15:00,
2013-01-10 08:30:00,27.2,21.0,29.81,SSW,207,2.0,3.0,77,0.00,,,0.00,weatherlink.com 1.10,2013-01-10 16:30:00,
2013-01-10 08:45:00,26.7,21.0,29.82,NW,322,3.0,4.0,80,0.00,,,0.00,weatherlink.com 1.10,2013-01-10 16:45:00,
2013-01-10 09:00:00,26.0,22.0,29.82,North,352,3.0,4.0,83,0.00,,,0.00,weatherlink.com 1.10,2013-01-10 17:00:00,
2013-01-10 09:15:00,26.0,22.0,29.82,North,8,0.0,3.0,83,0.00,,,0.00,weatherlink.com 1.10,2013-01-10 17:15:00,
2013-01-10 09:30:00,26.2,22.0,29.82,NNW,330,2.0,4.0,83,0.00,,,0.00,weatherlink.com 1.10,2013-01-10 17:30:00,
2013-01-10 09:45:00,26.4,22.0,29.82,NNW,345,2.0,2.0,84,0.00,,,0.00,weatherlink.com 1.10,2013-01-10 17:45:00,
2013-01-10 10:00:00,26.5,22.0,29.83,NNW,339,0.0,3.0,83,0.00,,,0.00,weatherlink.com 1.10,2013-01-10 18:00:00,
2013-01-10 10:15:00,26.7,22.0,29.82,ENE,61,0.0,2.0,83,0.00,,,0.00,weatherlink.com 1.10,2013-01-10 18:15:00,
2013-01-10 10:30:00,27.3,22.0,29.82,NNE,19,0.0,2.0,81,0.00,,,0.00,weatherlink.com 1.10,2013-01-10 18:30:00,
2013-01-10 10:45:00,27.5,22.0,29.81,NNW,347,1.0,5.0,81,0.00,,,0.00,weatherlink.com 1.10,2013-01-10 18:45:00,
2013-01-10 11:00:00,27.4,22.0,29.81,NE,39,0.0,3.0,81,0.00,,,0.00,weatherlink.com 1.10,2013-01-10 19:00:00,
2013-01-10 11:15:00,27.6,22.0,29.81,NE,36,0.0,2.0,80,0.00,,,0.00,weatherlink.com 1.10,2013-01-10 19:15:00,
2013-01-10 11:30:00,27.9,23.0,29.81,WSW,248,0.0,1.0,80,0.00,,,0.00,weatherlink.com 1.10,2013-01-10 19:30:00,
2013-01-10 11:45:00,28.0,22.0,29.81,West,277,0.0,1.0,79,0.00,,,0.00,weatherlink.com 1.10,2013-01-10 19:45:00,
2013-01-10 12:01:00,28.0,23.0,29.81,North,356,1.0,3.0,81,0.00,,,0.00,weatherlink.com 1.10,2013-01-10 20:01:00,
2013-01-10 12:16:00,28.2,23.0,29.81,SW,221,0.0,1.0,81,0.00,,,0.00,weatherlink.com 1.10,2013-01-10 20:16:00,
2013-01-10 12:30:00,28.0,23.0,29.81,West,274,0.0,1.0,82,0.00,,,0.00,weatherlink.com 1.10,2013-01-10 20:30:00,
2013-01-10 12:45:00,27.8,23.0,29.81,West,273,0.0,1.0,83,0.00,,,0.00,weatherlink.com 1.10,2013-01-10 20:45:00,
2013-01-10 13:01:00,27.8,23.0,29.81,WSW,250,0.0,2.0,83,0.00,,,0.00,weatherlink.com 1.10,2013-01-10 21:01:00,
2013-01-10 13:16:00,28.3,24.0,29.81,NNE,15,0.0,1.0,82,0.00,,,0.00,weatherlink.com 1.10,2013-01-10 21:16:00,
2013-01-10 13:31:00,28.2,24.0,29.82,WNW,287,0.0,1.0,83,0.00,,,0.00,weatherlink.com 1.10,2013-01-10 21:31:00,
2013-01-10 13:46:00,27.9,24.0,29.82,West,263,0.0,1.0,84,0.00,,,0.00,weatherlink.com 1.10,2013-01-10 21:46:00,
2013-01-10 14:01:00,27.5,24.0,29.83,SW,218,0.0,1.0,85,0.00,,,0.00,weatherlink.com 1.10,2013-01-10 22:01:00,
2013-01-10 14:16:00,27.5,24.0,29.83,WSW,239,1.0,1.0,86,0.00,,,0.00,weatherlink.com 1.10,2013-01-10 22:16:00,
2013-01-10 14:31:00,27.4,24.0,29.83,WNW,287,0.0,1.0,85,0.00,,,0.00,weatherlink.com 1.10,2013-01-10 22:31:00,
2013-01-10 14:46:00,27.3,23.0,29.83,SW,217,1.0,2.0,85,0.00,,,0.00,weatherlink.com 1.10,2013-01-10 22:46:00,
2013-01-10 15:01:00,27.3,23.0,29.84,SW,233,2.0,5.0,85,0.00,,,0.00,weatherlink.com 1.10,2013-01-10 23:01:00,
2013-01-10 15:16:00,27.4,24.0,29.84,SW,228,3.0,4.0,85,0.00,,,0.00,weatherlink.com 1.10,2013-01-10 23:16:00,
2013-01-10 15:31:00,27.5,24.0,29.84,SW,225,0.0,3.0,85,0.00,,,0.00,weatherlink.com 1.10,2013-01-10 23:31:00,
2013-01-10 15:46:00,27.6,23.0,29.84,SSW,207,1.0,5.0,84,0.00,,,0.00,weatherlink.com 1.10,2013-01-10 23:46:00,
2013-01-10 16:01:00,27.6,23.0,29.84,SW,222,1.0,2.0,84,0.00,,,0.00,weatherlink.com 1.10,2013-01-11 00:01:00,
2013-01-10 16:16:00,27.4,23.0,29.84,SSW,213,2.0,2.0,83,0.00,,,0.00,weatherlink.com 1.10,2013-01-11 00:16:00,
2013-01-10 16:31:00,27.3,23.0,29.84,SW,224,1.0,3.0,83,0.00,,,0.00,weatherlink.com 1.10,2013-01-11 00:31:00,
2013-01-10 16:46:00,26.9,23.0,29.84,SW,222,1.0,3.0,84,0.00,,,0.00,weatherlink.com 1.10,2013-01-11 00:46:00,
2013-01-10 17:01:00,26.5,23.0,29.84,South,190,3.0,4.0,85,0.00,,,0.00,weatherlink.com 1.10,2013-01-11 01:01:00,
2013-01-10 17:16:00,26.2,23.0,29.84,South,183,3.0,4.0,86,0.00,,,0.00,weatherlink.com 1.10,2013-01-11 01:16:00,
2013-01-10 17:31:00,26.3,23.0,29.85,South,188,3.0,5.0,86,0.00,,,0.00,weatherlink.com 1.10,2013-01-11 01:31:00,
2013-01-10 17:46:00,26.4,23.0,29.85,SW,218,2.0,3.0,86,0.00,,,0.00,weatherlink.com 1.10,2013-01-11 01:46:00,
2013-01-10 18:01:00,26.3,23.0,29.85,SW,214,1.0,2.0,86,0.00,,,0.00,weatherlink.com 1.10,2013-01-11 02:01:00,
2013-01-10 18:16:00,26.1,23.0,29.86,NW,307,0.0,2.0,87,0.00,,,0.00,weatherlink.com 1.10,2013-01-11 02:16:00,
2013-01-10 18:31:00,25.5,22.0,29.86,West,278,0.0,2.0,87,0.00,,,0.00,weatherlink.com 1.10,2013-01-11 02:31:00,
2013-01-10 18:46:00,25.3,22.0,29.86,West,278,0.0,1.0,87,0.00,,,0.00,weatherlink.com 1.10,2013-01-11 02:46:00,
2013-01-10 19:01:00,25.0,22.0,29.86,SW,225,0.0,4.0,87,0.00,,,0.00,weatherlink.com 1.10,2013-01-11 03:01:00,
2013-01-10 19:16:00,24.8,22.0,29.86,NNW,344,0.0,2.0,87,0.00,,,0.00,weatherlink.com 1.10,2013-01-11 03:16:00,
2013-01-10 19:31:00,24.7,21.0,29.87,West,264,1.0,4.0,87,0.00,,,0.00,weatherlink.com 1.10,2013-01-11 03:31:00,
2013-01-10 19:46:00,24.7,22.0,29.87,SSW,200,1.0,3.0,88,0.00,,,0.00,weatherlink.com 1.10,2013-01-11 03:46:00,
2013-01-10 20:01:00,24.6,22.0,29.87,SW,214,3.0,3.0,88,0.00,,,0.00,weatherlink.com 1.10,2013-01-11 04:01:00,
2013-01-10 20:16:00,24.5,22.0,29.87,SW,231,2.0,3.0,88,0.00,,,0.00,weatherlink.com 1.10,2013-01-11 04:16:00,
2013-01-10 20:31:00,24.4,21.0,29.87,SSW,197,1.0,3.0,88,0.00,,,0.00,weatherlink.com 1.10,2013-01-11 04:31:00,
2013-01-10 20:46:00,24.2,21.0,29.87,SSW,211,0.0,2.0,88,0.00,,,0.00,weatherlink.com 1.10,2013-01-11 04:46:00,
2013-01-10 21:01:00,24.1,21.0,29.87,SW,227,0.0,1.0,87,0.00,,,0.00,weatherlink.com 1.10,2013-01-11 05:01:00,
2013-01-10 21:16:00,24.1,21.0,29.88,SSW,200,1.0,2.0,87,0.00,,,0.00,weatherlink.com 1.10,2013-01-11 05:16:00,
2013-01-10 21:31:00,24.1,21.0,29.88,SW,217,0.0,2.0,88,0.00,,,0.00,weatherlink.com 1.10,2013-01-11 05:31:00,
2013-01-10 21:46:00,23.9,21.0,29.88,SSW,200,1.0,2.0,87,0.00,,,0.00,weatherlink.com 1.10,2013-01-11 05:46:00,
2013-01-10 22:01:00,23.8,21.0,29.88,SW,218,2.0,2.0,87,0.00,,,0.00,weatherlink.com 1.10,2013-01-11 06:01:00,
2013-01-10 22:16:00,23.8,21.0,29.89,SW,222,0.0,1.0,87,0.00,,,0.00,weatherlink.com 1.10,2013-01-11 06:16:00,
2013-01-10 22:31:00,23.8,21.0,29.89,SW,222,0.0,1.0,87,0.00,,,0.00,weatherlink.com 1.10,2013-01-11 06:31:00,
2013-01-10 22:46:00,23.8,21.0,29.89,SW,222,0.0,0.0,87,0.00,,,0.00,weatherlink.com 1.10,2013-01-11 06:46:00,
2013-01-10 23:01:00,24.1,21.0,29.89,NW,318,1.0,3.0,88,0.00,,,0.00,weatherlink.com 1.10,2013-01-11 07:01:00,
2013-01-10 23:16:00,24.2,21.0,29.90,NNW,330,1.0,5.0,88,0.00,,,0.00,weatherlink.com 1.10,2013-01-11 07:16:00,
2013-01-10 23:31:00,25.0,22.0,29.90,North,11,4.0,9.0,88,0.00,,,0.00,weatherlink.com 1.10,2013-01-11 07:31:00,
2013-01-10 23:46:00,25.1,22.0,29.90,NNE,13,4.0,11.0,88,0.00,,,0.00,weatherlink.com 1.10,2013-01-11 07:46:00,